Date,TemperatureHighF,TemperatureAvgF,TemperatureLowF,DewpointHighF,DewpointAvgF,DewpointLowF,HumidityHigh,HumidityAvg,HumidityLow,PressureMaxIn,PressureMinIn,WindSpeedMaxMPH,WindSpeedAvgMPH,GustSpeedMaxMPH,PrecipitationSumIn
2013-2-1,70.6,49.7,39.8,70.6,41.8,0.0,100,86,11,30.20,30.08,6,1,12,0.00
2013-2-2,57.3,49.1,44.3,52.2,44.4,26.2,100,87,30,30.27,30.19,3,0,7,0.00
2013-2-3,55.6,48.6,41.5,50.5,42.5,16.0,100,85,21,30.24,30.12,4,0,11,0.01
2013-2-4,61.2,46.9,37.8,52.6,38.1,-20.3,100,83,3,30.17,30.04,3,0,9,0.00
2013-2-5,54.8,47.5,40.6,49.5,43.4,22.1,100,89,28,30.14,30.05,6,1,8,0.01
2013-2-6,58.6,46.2,38.2,49.5,33.0,0.0,100,73,14,30.19,30.11,4,0,8,0.00
2013-2-7,54.5,45.4,38.3,48.6,32.7,-7.4,100,72,8,30.17,30.00,7,1,10,0.03
2013-2-8,54.8,44.1,35.5,54.8,28.6,-46.5,100,71,1,30.00,29.92,4,0,10,0.05
2013-2-9,53.6,41.5,32.2,45.2,23.7,-33.5,100,68,2,30.10,29.98,4,1,11,0.01
2013-2-10,54.1,42.5,32.8,54.1,31.1,-25.9,100,77,3,30.11,30.01,6,1,8,0.00
2013-2-11,56.6,44.3,35.0,56.6,33.0,-14.7,100,77,5,30.24,30.05,6,1,8,0.01
2013-2-12,57.2,45.1,36.2,44.3,25.7,-44.0,100,66,1,30.35,30.24,6,1,12,0.00
2013-2-13,60.2,45.5,34.7,46.7,27.2,-42.4,100,67,1,30.34,30.21,6,1,8,0.00
2013-2-14,69.6,51.3,37.6,69.6,37.8,-8.0,100,74,6,30.21,30.09,4,0,10,0.01
2013-2-15,77.0,56.5,41.2,77.0,39.2,-7.5,100,66,8,30.22,30.14,4,0,8,0.00
2013-2-16,74.9,56.0,44.8,74.9,31.2,-23.2,100,54,3,30.17,30.00,5,1,11,0.00
2013-2-17,56.0,47.2,40.5,50.4,40.2,13.1,100,83,18,30.05,29.96,8,1,10,0.00
2013-2-18,51.0,46.2,39.1,48.9,33.1,7.3,100,70,18,30.05,29.97,6,1,11,0.01
2013-2-19,48.8,42.8,33.7,48.8,39.2,12.2,100,89,24,29.97,29.75,12,1,14,0.35
2013-2-20,60.5,43.5,32.2,60.5,27.6,-17.4,100,70,5,30.07,29.82,9,1,15,0.01
2013-2-21,61.2,46.1,35.5,61.2,37.5,-36.9,100,82,2,30.16,30.04,8,1,12,0.00
2013-2-22,62.3,46.2,35.6,46.5,26.3,-29.2,100,64,2,30.25,30.16,6,1,10,0.00
2013-2-23,61.8,50.5,42.2,61.8,34.8,-37.1,100,73,2,30.23,30.10,8,1,14,0.00
2013-2-24,60.1,47.5,37.2,60.1,25.1,-37.0,100,52,2,30.25,30.13,9,2,12,0.00
2013-2-25,63.5,46.3,34.6,63.5,27.4,-29.1,100,62,2,30.27,30.13,5,1,8,0.00
2013-2-26,64.8,47.5,34.3,64.8,31.8,-31.4,100,70,2,30.19,30.08,5,1,8,0.00
2013-2-27,65.8,48.6,35.5,65.8,33.7,-23.9,100,70,4,30.35,30.19,6,1,10,0.00
2013-2-28,47.3,41.7,40.2,47.3,41.7,40.2,100,100,100,30.43,30.35,0,0,2,0.00